Location: Alfords
(31.4624°N, 83.9238°W)
Time: 11:39:29
(UTC+00:00)

Tiangong - Pass Details

Date: 03 October 2021
Orbit: 382 x 384 km, 41.5° (Epoch: 21 October)

Event Time Altitude Azimuth Distance (km) Brightness Sun altitude
Exits shadow 09:37:04 12° 20° (NNE) 1,291 4.1 -25.0°
Drops below altitude 10° 09:37:41 10° 30° (NNE) 1,396 4.4 -24.9°
Sets 09:40:35 0° 60° (ENE) 2,247 6.1 -24.3°
